TimeCDT,TemperatureF,Dew PointF,Humidity,Sea Level PressureIn,VisibilityMPH,Wind Direction,Wind SpeedMPH,Gust SpeedMPH,PrecipitationIn,Events,Conditions,WindDirDegrees,DateUTC
12:20 AM,69.8,60.8,73,29.95,10.0,SW,6.9,18.4,N/A,Thunderstorm,Mostly Cloudy,230,2013-06-22 05:20:00
12:35 AM,69.8,62.6,78,29.94,9.0,SW,4.6,-,0.00,Rain,Light Rain,230,2013-06-22 05:35:00
12:53 AM,68.0,63.0,84,29.89,7.0,SSE,6.9,-,0.02,Rain-Thunderstorm,Light Thunderstorms and Rain,160,2013-06-22 05:53:00
1:53 AM,69.1,63.0,81,29.93,8.0,SW,11.5,-,0.10,Rain-Thunderstorm,Light Thunderstorms and Rain,220,2013-06-22 06:53:00
2:36 AM,68.0,64.4,88,29.97,4.0,South,5.8,-,0.06,Rain,Light Rain,190,2013-06-22 07:36:00
2:53 AM,68.0,64.0,87,29.96,5.0,South,9.2,-,0.09,Rain,Light Rain,190,2013-06-22 07:53:00
3:05 AM,66.2,64.4,94,29.96,3.0,West,4.6,-,0.04,Rain-Thunderstorm,Rain,260,2013-06-22 08:05:00
3:14 AM,66.2,64.4,94,29.96,2.5,WSW,3.5,-,0.07,Rain,Rain,250,2013-06-22 08:14:00
3:29 AM,66.2,62.6,88,29.95,3.0,WSW,3.5,-,0.11,Rain-Thunderstorm,Rain,250,2013-06-22 08:29:00
3:47 AM,66.2,64.4,94,29.94,4.0,Calm,Calm,-,0.15,Rain-Thunderstorm,Light Thunderstorms and Rain,0,2013-06-22 08:47:00
3:53 AM,66.0,64.0,93,29.94,4.0,Calm,Calm,-,0.16,Rain-Thunderstorm,Thunderstorms and Rain,0,2013-06-22 08:53:00
4:08 AM,66.2,62.6,88,29.94,4.0,WNW,5.8,-,0.03,Rain,Light Rain,290,2013-06-22 09:08:00
4:28 AM,66.2,62.6,88,29.95,2.5,West,4.6,-,0.08,Rain-Thunderstorm,Rain,280,2013-06-22 09:28:00
4:37 AM,66.2,64.4,94,29.95,3.0,WNW,4.6,-,0.11,Rain-Thunderstorm,Rain,300,2013-06-22 09:37:00
4:53 AM,66.0,64.0,93,29.94,3.0,Calm,Calm,-,0.15,Rain,Light Rain,0,2013-06-22 09:53:00
5:53 AM,66.0,64.0,93,29.99,6.0,WSW,3.5,-,0.06,Rain,Light Rain,250,2013-06-22 10:53:00
6:53 AM,66.0,64.0,93,29.87,5.0,East,11.5,-,0.01,,Clear,80,2013-06-22 11:53:00
7:53 AM,66.9,64.0,90,29.86,5.0,East,6.9,-,0.00,,Mostly Cloudy,100,2013-06-22 12:53:00
8:40 AM,69.8,64.4,83,29.92,10.0,SE,9.2,-,N/A,,Mostly Cloudy,130,2013-06-22 13:40:00
8:51 AM,69.8,64.4,83,29.94,10.0,SSE,8.1,-,N/A,,Mostly Cloudy,160,2013-06-22 13:51:00
8:53 AM,69.1,64.9,87,29.93,10.0,SSE,5.8,-,N/A,,Mostly Cloudy,150,2013-06-22 13:53:00
9:06 AM,69.8,64.4,83,29.95,10.0,ESE,3.5,-,N/A,,Mostly Cloudy,120,2013-06-22 14:06:00
9:53 AM,70.0,64.9,84,29.95,10.0,NE,3.5,-,N/A,,Overcast,50,2013-06-22 14:53:00
10:00 AM,69.8,64.4,83,29.95,10.0,NE,3.5,-,N/A,,Overcast,50,2013-06-22 15:00:00
10:12 AM,69.8,64.4,83,29.95,10.0,NE,3.5,-,N/A,,Overcast,50,2013-06-22 15:12:00
10:53 AM,70.0,64.9,84,29.94,10.0,ENE,3.5,-,N/A,,Overcast,60,2013-06-22 15:53:00
11:53 AM,72.0,66.0,81,29.92,10.0,ENE,4.6,-,N/A,,Overcast,70,2013-06-22 16:53:00
12:40 PM,73.4,66.2,78,29.92,10.0,ENE,3.5,-,N/A,,Overcast,60,2013-06-22 17:40:00
12:53 PM,73.9,66.0,76,29.90,10.0,NE,5.8,-,N/A,,Mostly Cloudy,50,2013-06-22 17:53:00
1:04 PM,75.2,66.2,73,29.91,10.0,NE,5.8,-,N/A,,Overcast,40,2013-06-22 18:04:00
1:53 PM,77.0,66.9,71,29.91,10.0,NE,5.8,-,N/A,,Overcast,50,2013-06-22 18:53:00
2:37 PM,78.8,66.2,65,29.89,10.0,NNE,5.8,-,N/A,,Scattered Clouds,30,2013-06-22 19:37:00
2:53 PM,78.1,68.0,71,29.88,10.0,NNE,8.1,-,N/A,,Clear,20,2013-06-22 19:53:00
3:16 PM,78.8,68.0,69,29.91,10.0,NE,4.6,-,N/A,,Mostly Cloudy,40,2013-06-22 20:16:00
3:37 PM,80.6,68.0,65,29.91,10.0,NE,6.9,-,N/A,,Scattered Clouds,40,2013-06-22 20:37:00
3:50 PM,78.8,68.0,69,29.91,10.0,East,5.8,-,N/A,,Mostly Cloudy,80,2013-06-22 20:50:00
3:53 PM,80.1,68.0,67,29.90,10.0,East,5.8,-,N/A,,Mostly Cloudy,90,2013-06-22 20:53:00
4:02 PM,80.6,66.2,61,29.91,10.0,NE,3.5,-,N/A,,Scattered Clouds,50,2013-06-22 21:02:00
4:53 PM,81.0,68.0,65,29.88,10.0,ENE,5.8,-,N/A,,Mostly Cloudy,70,2013-06-22 21:53:00
5:26 PM,80.6,68.0,65,29.87,10.0,North,4.6,-,N/A,,Mostly Cloudy,360,2013-06-22 22:26:00
5:53 PM,82.0,68.0,62,29.86,10.0,NE,6.9,-,N/A,,Clear,50,2013-06-22 22:53:00
6:53 PM,81.0,68.0,65,29.85,10.0,East,5.8,-,N/A,,Clear,90,2013-06-22 23:53:00
7:53 PM,79.0,68.0,69,29.83,10.0,ENE,4.6,-,N/A,,Clear,60,2013-06-23 00:53:00
8:53 PM,77.0,68.0,74,29.83,10.0,East,4.6,-,N/A,,Scattered Clouds,90,2013-06-23 01:53:00
9:53 PM,75.9,68.0,76,29.84,10.0,East,6.9,-,N/A,,Clear,100,2013-06-23 02:53:00
10:53 PM,75.0,66.9,76,29.84,10.0,East,5.8,-,N/A,,Scattered Clouds,80,2013-06-23 03:53:00
11:53 PM,73.9,66.9,79,29.83,10.0,East,6.9,-,N/A,,Clear,100,2013-06-23 04:53:00